| time (UTC) | temp C | wind direction | speed KPH | gust KPH | rain 1hr cm | rain 24hr cm | rain mn cm | humidity % | barometer mb |
| 20260506111852 | 15 | 141 | 1.6 | 3.2 | 0.13 | 1.12 | 1.12 | 99 | 1003.4 |
| 20260506111350 | 14 | 126 | 0.0 | 1.6 | 0.13 | 1.12 | 1.12 | 99 | 1003.2 |
| 20260506110847 | 14 | 133 | 0.0 | 1.6 | 0.00 | 1.09 | 1.09 | 99 | 1003.3 |
| 20260506110344 | 14 | 130 | 1.6 | 1.6 | 0.00 | 1.09 | 1.09 | 99 | 1003.1 |
| 20260506105841 | 15 | 129 | 3.2 | 3.2 | 0.18 | 1.09 | 1.09 | 99 | 1003.4 |
| 20260506105337 | 14 | 137 | 1.6 | 1.6 | 0.30 | 1.09 | 1.09 | 99 | 1003.8 |
| 20260506104835 | 14 | 131 | 1.6 | 1.6 | 0.30 | 1.07 | 1.07 | 99 | 1003.5 |
| 20260506104332 | 14 | 123 | 0.0 | 0.0 | 0.18 | 1.04 | 1.04 | 99 | 1003.4 |
| 20260506103830 | 14 | 129 | 0.0 | 0.0 | 0.18 | 1.02 | 1.02 | 99 | 1003.5 |
| 20260506103327 | 14 | 128 | 0.0 | 1.6 | 0.18 | 1.02 | 1.02 | 99 | 1003.5 |
| 20260506102825 | 14 | 133 | 0.0 | 0.0 | 0.00 | 0.99 | 0.99 | 99 | 1003.5 |
| 20260506102322 | 14 | 93 | 1.6 | 3.2 | 0.13 | 0.99 | 0.99 | 99 | 1003.2 |
| 20260506101820 | 14 | 118 | 1.6 | 1.6 | 0.13 | 0.99 | 0.99 | 99 | 1003.0 |
| 20260506101315 | 14 | 128 | 0.0 | 1.6 | 0.00 | 0.97 | 0.97 | 99 | 1003.2 |
| 20260506100814 | 14 | 127 | 1.6 | 1.6 | 0.00 | 0.97 | 0.97 | 99 | 1003.2 |
| 20260506100312 | 14 | 121 | 0.0 | 0.0 | 0.00 | 0.97 | 0.97 | 99 | 1002.9 |
| 20260506095810 | 14 | 103 | 0.0 | 0.0 | 0.00 | 0.97 | 0.97 | 99 | 1002.8 |
| 20260506095306 | 14 | 153 | 3.2 | 3.2 | 0.00 | 0.97 | 0.97 | 99 | 1003.0 |
| 20260506094803 | 14 | 130 | 0.0 | 0.0 | 0.00 | 0.97 | 0.97 | 99 | 1002.5 |
| 20260506094302 | 14 | 138 | 1.6 | 1.6 | 0.00 | 0.97 | 0.97 | 99 | 1002.4 |
| 20260506093800 | 14 | 131 | 0.0 | 0.0 | 0.00 | 0.97 | 0.97 | 99 | 1002.3 |
| 20260506093256 | 14 | 131 | 1.6 | 1.6 | 0.18 | 0.97 | 0.97 | 99 | 1002.2 |
| 20260506092755 | 14 | 124 | 1.6 | 1.6 | 0.18 | 0.97 | 0.97 | 99 | 1002.4 |
| 20260506092252 | 14 | 131 | 0.0 | 0.0 | 0.43 | 0.94 | 0.94 | 99 | 1002.5 |
| 20260506091749 | 14 | 133 | 1.6 | 1.6 | 0.71 | 0.94 | 0.94 | 99 | 1002.7 |
| 20260506091246 | 14 | 131 | 1.6 | 3.2 | 0.71 | 0.89 | 0.89 | 99 | 1002.6 |
| 20260506090744 | 14 | 129 | 4.8 | 4.8 | 0.48 | 0.81 | 0.81 | 99 | 1002.4 |
| 20260506090241 | 14 | 131 | 4.8 | 4.8 | 0.48 | 0.76 | 0.76 | 99 | 1002.4 |
| 20260506085738 | 14 | 128 | 1.6 | 1.6 | 0.48 | 0.74 | 0.74 | 99 | 1002.5 |
| 20260506085234 | 14 | 129 | 3.2 | 8.0 | 0.30 | 0.69 | 0.69 | 99 | 1002.4 |
| 20260506084731 | 14 | 144 | 4.8 | 4.8 | 0.13 | 0.66 | 0.66 | 99 | 1002.5 |
| 20260506084227 | 14 | 120 | 4.8 | 4.8 | 0.00 | 0.64 | 0.64 | 99 | 1002.2 |
| 20260506083724 | 14 | 120 | 3.2 | 3.2 | 0.00 | 0.64 | 0.64 | 99 | 1002.3 |
| 20260506083222 | 14 | 125 | 4.8 | 4.8 | 0.00 | 0.64 | 0.64 | 98 | 1002.2 |
| 20260506082719 | 14 | 138 | 3.2 | 3.2 | 0.00 | 0.64 | 0.64 | 98 | 1002.3 |
| 20260506082214 | 14 | 92 | 6.4 | 9.7 | 0.00 | 0.64 | 0.64 | 98 | 1002.1 |
| 20260506081713 | 14 | 141 | 8.0 | 9.7 | 0.18 | 0.64 | 0.64 | 98 | 1002.2 |
| 20260506081210 | 14 | 148 | 6.4 | 8.0 | 0.30 | 0.64 | 0.64 | 98 | 1002.2 |
| 20260506080708 | 14 | 134 | 4.8 | 4.8 | 0.13 | 0.61 | 0.61 | 98 | 1002.4 |
| 20260506080204 | 14 | 125 | 6.4 | 8.0 | 0.18 | 0.58 | 0.58 | 98 | 1002.6 |
| 20260506073148 | 14 | 140 | 1.6 | 1.6 | 0.43 | 0.33 | 0.33 | 97 | 1002.6 |
| 20260506072644 | 14 | 132 | 1.6 | 3.2 | 0.13 | 0.28 | 0.28 | 98 | 1002.5 |
| 20260506072142 | 14 | 132 | 3.2 | 3.2 | 0.00 | 0.25 | 0.25 | 98 | 1002.6 |
| 20260506071640 | 14 | 122 | 4.8 | 4.8 | 0.00 | 0.25 | 0.25 | 98 | 1002.6 |
| 20260506071137 | 14 | 114 | 3.2 | 3.2 | 0.18 | 0.25 | 0.25 | 98 | 1002.7 |
| 20260506070634 | 14 | 108 | 6.4 | 9.7 | 0.18 | 0.25 | 0.25 | 98 | 1002.7 |
| 20260506070131 | 15 | 137 | 4.8 | 4.8 | 0.00 | 0.23 | 0.23 | 97 | 1002.9 |
| 20260506062109 | 16 | 131 | 1.6 | 3.2 | 0.36 | 0.10 | 0.10 | 86 | 1003.9 |
| 20260506061604 | 16 | 136 | 3.2 | 3.2 | 0.18 | 0.08 | 0.08 | 84 | 1004.0 |
| 20260506061102 | 17 | 124 | 3.2 | 3.2 | 0.00 | 0.05 | 0.05 | 82 | 1004.2 |
| 20260506060600 | 17 | 117 | 4.8 | 4.8 | 0.00 | 0.05 | 0.05 | 80 | 1004.5 |
| 20260506051029 | 15 | 131 | 3.2 | 3.2 | 0.00 | 0.03 | 0.03 | 97 | 1004.1 |
| 20260506050527 | 15 | 135 | 1.6 | 1.6 | 0.00 | 0.03 | 0.03 | 97 | 1004.1 |
| 20260506045017 | 15 | 131 | 0.0 | 1.6 | 0.00 | 0.03 | 0.03 | 94 | 1004.0 |
| 20260506044515 | 15 | 127 | 0.0 | 0.0 | 0.00 | 0.03 | 0.03 | 93 | 1004.0 |
| 20260506044012 | 15 | 129 | 0.0 | 0.0 | 0.18 | 0.03 | 0.03 | 92 | 1004.1 |
| 20260506043509 | 15 | 132 | 0.0 | 0.0 | 0.18 | 0.03 | 0.03 | 92 | 1004.4 |
| 20260506043007 | 15 | 131 | 0.0 | 0.0 | 0.00 | 0.00 | 0.00 | 90 | 1003.9 |
| 20260506042506 | 15 | 133 | 0.0 | 0.0 | 0.00 | 0.00 | 0.00 | 90 | 1003.9 |
| 20260506042004 | 16 | 132 | 0.0 | 0.0 | 0.00 | 0.00 | 0.00 | 89 | 1004.1 |
| 20260506041502 | 16 | 134 | 1.6 | 1.6 | 0.00 | 0.00 | 0.00 | 86 | 1004.0 |
| 20260506040959 | 16 | 155 | 3.2 | 4.8 | 0.00 | 0.00 | 0.00 | 87 | 1003.8 |
| 20260506040456 | 16 | 134 | 4.8 | 4.8 | 0.00 | 0.00 | 0.00 | 82 | 1004.2 |
| 20260506035952 | 15 | 130 | 8.0 | 12.9 | 0.00 | 0.03 | 0.03 | 94 | 1004.5 |
| 20260506035449 | 15 | 131 | 1.6 | 1.6 | 0.00 | 0.03 | 0.03 | 96 | 1004.4 |
| 20260506034946 | 15 | 131 | 0.0 | 0.0 | 0.00 | 0.03 | 0.03 | 95 | 1004.3 |
| 20260506034443 | 15 | 123 | 3.2 | 3.2 | 0.00 | 0.03 | 0.03 | 95 | 1004.4 |
| 20260506033940 | 15 | 136 | 3.2 | 3.2 | 0.00 | 0.03 | 0.03 | 95 | 1004.2 |
| 20260506033438 | 15 | 126 | 0.0 | 0.0 | 0.00 | 0.03 | 0.03 | 93 | 1004.0 |
| 20260506032934 | 15 | 132 | 1.6 | 1.6 | 0.13 | 0.03 | 0.03 | 92 | 1004.1 |
| 20260506032432 | 15 | 129 | 1.6 | 1.6 | 0.13 | 0.03 | 0.03 | 92 | 1004.4 |
| 20260506031928 | 15 | 126 | 1.6 | 1.6 | 0.00 | 0.00 | 0.00 | 91 | 1004.8 |
| 20260506031425 | 15 | 137 | 1.6 | 3.2 | 0.00 | 0.00 | 0.00 | 90 | 1004.5 |
| 20260506030923 | 15 | 130 | 0.0 | 0.0 | 0.00 | 0.00 | 0.00 | 89 | 1004.3 |
| 20260506030421 | 16 | 135 | 0.0 | 0.0 | 0.00 | 0.00 | 0.00 | 87 | 1004.6 |
| 20260506025917 | 16 | 132 | 0.0 | 0.0 | 0.00 | 0.00 | 0.00 | 86 | 1004.4 |
| 20260506025414 | 16 | 132 | 0.0 | 0.0 | 0.00 | 0.00 | 0.00 | 85 | 1004.5 |
| 20260506024911 | 16 | 132 | 0.0 | 0.0 | 0.00 | 0.00 | 0.00 | 84 | 1004.6 |
| 20260506024408 | 16 | 132 | 0.0 | 0.0 | 0.00 | 0.00 | 0.00 | 82 | 1004.7 |
| 20260506023904 | 16 | 132 | 0.0 | 0.0 | 0.00 | 0.00 | 0.00 | 82 | 1004.7 |
| 20260506023401 | 16 | 132 | 0.0 | 0.0 | 0.00 | 0.00 | 0.00 | 82 | 1004.7 |
| 20260506022857 | 16 | 132 | 0.0 | 0.0 | 0.00 | 0.00 | 0.00 | 83 | 1004.6 |
| 20260506022355 | 16 | 132 | 0.0 | 0.0 | 0.00 | 0.00 | 0.00 | 83 | 1004.6 |
| 20260506021853 | 16 | 132 | 0.0 | 0.0 | 0.00 | 0.00 | 0.00 | 81 | 1004.6 |
| 20260506021349 | 16 | 132 | 0.0 | 0.0 | 0.00 | 0.00 | 0.00 | 81 | 1004.7 |
| 20260506020846 | 16 | 132 | 0.0 | 0.0 | 0.00 | 0.00 | 0.00 | 81 | 1004.6 |
| 20260506020344 | 16 | 132 | 0.0 | 0.0 | 0.00 | 0.00 | 0.00 | 80 | 1004.7 |
| 20260506015842 | 16 | 132 | 0.0 | 0.0 | 0.00 | 0.00 | 0.00 | 80 | 1004.6 |
| 20260506015339 | 16 | 132 | 0.0 | 0.0 | 0.00 | 0.00 | 0.00 | 80 | 1004.5 |
| 20260506014836 | 16 | 132 | 0.0 | 0.0 | 0.00 | 0.00 | 0.00 | 80 | 1004.4 |
| 20260506014333 | 16 | 132 | 0.0 | 0.0 | 0.00 | 0.00 | 0.00 | 79 | 1004.4 |
| 20260506013829 | 17 | 132 | 0.0 | 0.0 | 0.00 | 0.00 | 0.00 | 79 | 1004.3 |
| 20260506013326 | 17 | 132 | 0.0 | 0.0 | 0.00 | 0.00 | 0.00 | 78 | 1004.5 |
| 20260506012823 | 17 | 132 | 0.0 | 0.0 | 0.00 | 0.00 | 0.00 | 79 | 1004.4 |
| 20260506012320 | 17 | 132 | 0.0 | 0.0 | 0.00 | 0.00 | 0.00 | 79 | 1004.6 |
| 20260506011817 | 17 | 135 | 0.0 | 0.0 | 0.00 | 0.00 | 0.00 | 79 | 1004.6 |
| 20260506011314 | 17 | 133 | 0.0 | 0.0 | 0.00 | 0.00 | 0.00 | 80 | 1004.6 |
| 20260506010811 | 17 | 133 | 0.0 | 0.0 | 0.00 | 0.00 | 0.00 | 79 | 1004.6 |
| 20260506010309 | 17 | 137 | 1.6 | 1.6 | 0.00 | 0.00 | 0.00 | 79 | 1004.7 |
| 20260506005806 | 17 | 136 | 0.0 | 1.6 | 0.00 | 0.00 | 0.00 | 80 | 1004.5 |
| 20260506005305 | 17 | 134 | 1.6 | 1.6 | 0.00 | 0.00 | 0.00 | 79 | 1004.7 |
| 20260506004758 | 17 | 134 | 3.2 | 3.2 | 0.00 | 0.00 | 0.00 | 78 | 1004.6 |
| 20260506004257 | 17 | 134 | 0.0 | 0.0 | 0.00 | 0.00 | 0.00 | 76 | 1004.4 |
| 20260506003752 | 17 | 134 | 0.0 | 0.0 | 0.00 | 0.00 | 0.00 | 75 | 1004.6 |
| 20260506003249 | 18 | 134 | 0.0 | 0.0 | 0.00 | 0.00 | 0.00 | 74 | 1004.7 |
| 20260506002745 | 18 | 134 | 0.0 | 0.0 | 0.00 | 0.00 | 0.00 | 71 | 1004.8 |
| 20260506002241 | 18 | 133 | 0.0 | 0.0 | 0.00 | 0.00 | 0.00 | 69 | 1004.8 |
| 20260506001737 | 18 | 134 | 0.0 | 0.0 | 0.00 | 0.00 | 0.00 | 68 | 1004.8 |
| 20260506001235 | 18 | 134 | 0.0 | 0.0 | 0.00 | 0.00 | 0.00 | 68 | 1005.1 |
| 20260506000732 | 19 | 134 | 0.0 | 0.0 | 0.00 | 0.00 | 0.00 | 65 | 1005.0 |
| 20260506000229 | 19 | 133 | 0.0 | 0.0 | 0.00 | 0.00 | 0.00 | 64 | 1004.8 |
| 20260505235726 | 20 | 134 | 0.0 | 0.0 | 0.00 | 0.00 | 0.00 | 62 | 1004.9 |
| 20260505235224 | 20 | 134 | 1.6 | 1.6 | 0.00 | 0.00 | 0.00 | 62 | 1004.9 |
| 20260505234720 | 20 | 134 | 0.0 | 0.0 | 0.00 | 0.00 | 0.00 | 56 | 1005.2 |
| 20260505234218 | 20 | 135 | 1.6 | 3.2 | 0.00 | 0.00 | 0.00 | 57 | 1005.2 |
| 20260505233714 | 21 | 119 | 1.6 | 3.2 | 0.00 | 0.00 | 0.00 | 51 | 1005.1 |
| 20260505233212 | 21 | 127 | 1.6 | 1.6 | 0.00 | 0.00 | 0.00 | 50 | 1005.3 |
| 20260505232709 | 21 | 106 | 1.6 | 1.6 | 0.00 | 0.00 | 0.00 | 53 | 1005.2 |
| 20260505232207 | 21 | 138 | 1.6 | 1.6 | 0.00 | 0.00 | 0.00 | 51 | 1005.3 |
| 20260505231703 | 21 | 129 | 3.2 | 3.2 | 0.00 | 0.00 | 0.00 | 51 | 1005.2 |
| 20260505231202 | 21 | 140 | 3.2 | 3.2 | 0.00 | 0.00 | 0.00 | 51 | 1005.3 |
| 20260505230700 | 21 | 136 | 3.2 | 3.2 | 0.00 | 0.00 | 0.00 | 50 | 1005.6 |
| 20260505230156 | 22 | 132 | 3.2 | 3.2 | 0.00 | 0.00 | 0.00 | 50 | 1005.6 |
| 20260505225652 | 22 | 149 | 4.8 | 8.0 | 0.00 | 0.00 | 0.00 | 49 | 1005.7 |
| 20260505225149 | 22 | 127 | 1.6 | 3.2 | 0.00 | 0.00 | 0.00 | 49 | 1005.4 |
| 20260505224645 | 22 | 136 | 8.0 | 9.7 | 0.00 | 0.00 | 0.00 | 47 | 1005.4 |
| 20260505224143 | 22 | 162 | 8.0 | 11.3 | 0.00 | 0.00 | 0.00 | 47 | 1005.7 |
| 20260505223641 | 22 | 111 | 6.4 | 9.7 | 0.00 | 0.00 | 0.00 | 46 | 1005.5 |
| 20260505223136 | 22 | 114 | 4.8 | 8.0 | 0.00 | 0.00 | 0.00 | 47 | 1005.3 |
| 20260505222632 | 22 | 140 | 8.0 | 9.7 | 0.00 | 0.00 | 0.00 | 46 | 1005.6 |
| 20260505222129 | 22 | 126 | 6.4 | 8.0 | 0.00 | 0.00 | 0.00 | 45 | 1005.3 |
| 20260505221626 | 23 | 139 | 8.0 | 11.3 | 0.00 | 0.00 | 0.00 | 47 | 1005.6 |
| 20260505221122 | 23 | 161 | 3.2 | 3.2 | 0.00 | 0.00 | 0.00 | 48 | 1005.6 |
| 20260505220620 | 23 | 123 | 4.8 | 8.0 | 0.00 | 0.00 | 0.00 | 48 | 1005.5 |
| 20260505220118 | 23 | 151 | 4.8 | 8.0 | 0.00 | 0.00 | 0.00 | 49 | 1005.5 |
| 20260505215615 | 23 | 136 | 9.7 | 11.3 | 0.00 | 0.00 | 0.00 | 47 | 1005.4 |
| 20260505215113 | 23 | 124 | 4.8 | 4.8 | 0.00 | 0.00 | 0.00 | 51 | 1005.3 |
| 20260505214611 | 23 | 116 | 6.4 | 9.7 | 0.00 | 0.00 | 0.00 | 49 | 1005.2 |
| 20260505214108 | 23 | 121 | 8.0 | 9.7 | 0.00 | 0.00 | 0.00 | 49 | 1005.4 |
| 20260505213605 | 23 | 129 | 1.6 | 1.6 | 0.00 | 0.00 | 0.00 | 49 | 1005.8 |
| 20260505213102 | 23 | 139 | 1.6 | 1.6 | 0.00 | 0.00 | 0.00 | 50 | 1005.5 |
| 20260505212558 | 23 | 146 | 4.8 | 4.8 | 0.00 | 0.00 | 0.00 | 49 | 1005.6 |
| 20260505212056 | 23 | 137 | 9.7 | 12.9 | 0.00 | 0.00 | 0.00 | 49 | 1005.6 |
| 20260505211552 | 23 | 137 | 0.0 | 1.6 | 0.00 | 0.00 | 0.00 | 52 | 1005.5 |
| 20260505211049 | 23 | 135 | 1.6 | 1.6 | 0.00 | 0.00 | 0.00 | 50 | 1005.7 |
| 20260505210546 | 23 | 114 | 6.4 | 8.0 | 0.00 | 0.00 | 0.00 | 49 | 1005.5 |
| 20260505210043 | 23 | 134 | 4.8 | 4.8 | 0.00 | 0.00 | 0.00 | 48 | 1005.7 |
| 20260505205541 | 23 | 131 | 9.7 | 11.3 | 0.00 | 0.00 | 0.00 | 49 | 1005.5 |
| 20260505205038 | 23 | 117 | 4.8 | 8.0 | 0.00 | 0.00 | 0.00 | 48 | 1005.9 |
| 20260505204536 | 23 | 134 | 8.0 | 9.7 | 0.00 | 0.00 | 0.00 | 50 | 1005.9 |
| 20260505204033 | 23 | 112 | 9.7 | 12.9 | 0.00 | 0.00 | 0.00 | 49 | 1005.8 |
| 20260505203529 | 23 | 143 | 9.7 | 12.9 | 0.00 | 0.00 | 0.00 | 49 | 1005.9 |
| 20260505203026 | 24 | 140 | 1.6 | 3.2 | 0.00 | 0.00 | 0.00 | 50 | 1005.9 |
| 20260505202522 | 24 | 103 | 4.8 | 8.0 | 0.00 | 0.00 | 0.00 | 49 | 1006.0 |
| 20260505202018 | 23 | 143 | 4.8 | 4.8 | 0.00 | 0.00 | 0.00 | 50 | 1006.1 |
| 20260505201516 | 23 | 129 | 4.8 | 4.8 | 0.00 | 0.00 | 0.00 | 50 | 1006.0 |
| 20260505201013 | 23 | 151 | 4.8 | 4.8 | 0.00 | 0.00 | 0.00 | 51 | 1006.1 |
| 20260505200511 | 23 | 124 | 1.6 | 1.6 | 0.00 | 0.00 | 0.00 | 53 | 1006.2 |
| 20260505200007 | 23 | 123 | 6.4 | 8.0 | 0.00 | 0.00 | 0.00 | 50 | 1006.0 |
| 20260505195504 | 23 | 97 | 3.2 | 3.2 | 0.00 | 0.00 | 0.00 | 52 | 1006.1 |
| 20260505195001 | 23 | 141 | 4.8 | 8.0 | 0.00 | 0.00 | 0.00 | 53 | 1006.3 |
| 20260505194459 | 23 | 82 | 3.2 | 8.0 | 0.00 | 0.00 | 0.00 | 51 | 1006.4 |
| 20260505193958 | 23 | 122 | 9.7 | 14.5 | 0.00 | 0.00 | 0.00 | 50 | 1006.3 |
| 20260505193456 | 23 | 108 | 4.8 | 8.0 | 0.00 | 0.00 | 0.00 | 49 | 1006.7 |
| 20260505192953 | 23 | 123 | 1.6 | 1.6 | 0.00 | 0.00 | 0.00 | 50 | 1006.5 |
| 20260505192452 | 23 | 120 | 9.7 | 11.3 | 0.00 | 0.00 | 0.00 | 51 | 1006.9 |
| 20260505191949 | 23 | 186 | 9.7 | 12.9 | 0.00 | 0.00 | 0.00 | 52 | 1006.6 |
| 20260505191447 | 23 | 133 | 6.4 | 8.0 | 0.00 | 0.00 | 0.00 | 52 | 1006.9 |
| 20260505190944 | 23 | 137 | 11.3 | 14.5 | 0.00 | 0.00 | 0.00 | 50 | 1007.1 |
| 20260505190439 | 23 | 127 | 6.4 | 9.7 | 0.00 | 0.00 | 0.00 | 50 | 1007.0 |
| 20260505185935 | 23 | 141 | 3.2 | 4.8 | 0.00 | 0.00 | 0.00 | 53 | 1007.2 |
| 20260505185432 | 23 | 137 | 8.0 | 9.7 | 0.00 | 0.00 | 0.00 | 53 | 1007.1 |
| 20260505184928 | 23 | 114 | 8.0 | 11.3 | 0.00 | 0.00 | 0.00 | 50 | 1007.2 |
| 20260505184426 | 23 | 125 | 3.2 | 3.2 | 0.00 | 0.00 | 0.00 | 50 | 1007.3 |
| 20260505183922 | 23 | 180 | 6.4 | 9.7 | 0.00 | 0.00 | 0.00 | 50 | 1007.1 |
| 20260505183419 | 23 | 104 | 11.3 | 12.9 | 0.00 | 0.00 | 0.00 | 49 | 1007.2 |
| 20260505182916 | 23 | 179 | 4.8 | 8.0 | 0.00 | 0.00 | 0.00 | 51 | 1007.5 |
| 20260505182413 | 23 | 132 | 1.6 | 1.6 | 0.00 | 0.00 | 0.00 | 50 | 1007.4 |
| 20260505181909 | 23 | 121 | 1.6 | 3.2 | 0.00 | 0.00 | 0.00 | 53 | 1007.5 |
| 20260505181406 | 23 | 107 | 11.3 | 14.5 | 0.00 | 0.00 | 0.00 | 51 | 1007.6 |
| 20260505180903 | 23 | 135 | 4.8 | 4.8 | 0.00 | 0.00 | 0.00 | 52 | 1007.5 |
| 20260505180400 | 23 | 110 | 16.1 | 16.1 | 0.00 | 0.00 | 0.00 | 50 | 1007.3 |
| 20260505175856 | 23 | 168 | 9.7 | 14.5 | 0.00 | 0.00 | 0.00 | 52 | 1007.5 |
| 20260505175352 | 22 | 127 | 8.0 | 9.7 | 0.00 | 0.00 | 0.00 | 53 | 1007.7 |
| 20260505174849 | 22 | 144 | 9.7 | 11.3 | 0.00 | 0.00 | 0.00 | 51 | 1007.8 |
| 20260505174347 | 22 | 123 | 4.8 | 8.0 | 0.00 | 0.00 | 0.00 | 53 | 1007.8 |
| 20260505173842 | 22 | 117 | 9.7 | 11.3 | 0.00 | 0.00 | 0.00 | 51 | 1007.8 |
| 20260505173339 | 22 | 178 | 4.8 | 8.0 | 0.00 | 0.00 | 0.00 | 52 | 1007.7 |
| 20260505172836 | 22 | 136 | 6.4 | 11.3 | 0.00 | 0.00 | 0.00 | 54 | 1007.9 |
| 20260505172334 | 22 | 151 | 6.4 | 9.7 | 0.00 | 0.00 | 0.00 | 55 | 1007.9 |
| 20260505171833 | 22 | 163 | 8.0 | 11.3 | 0.00 | 0.00 | 0.00 | 54 | 1007.9 |
| 20260505171331 | 22 | 122 | 11.3 | 14.5 | 0.00 | 0.00 | 0.00 | 53 | 1007.9 |
| 20260505170827 | 23 | 174 | 4.8 | 4.8 | 0.00 | 0.00 | 0.00 | 56 | 1007.8 |
| 20260505170324 | 22 | 115 | 6.4 | 8.0 | 0.00 | 0.00 | 0.00 | 53 | 1007.9 |
| 20260505165819 | 23 | 111 | 4.8 | 8.0 | 0.00 | 0.00 | 0.00 | 54 | 1007.9 |
| 20260505165315 | 23 | 102 | 6.4 | 8.0 | 0.00 | 0.00 | 0.00 | 51 | 1007.8 |
| 20260505164811 | 23 | 170 | 9.7 | 12.9 | 0.00 | 0.00 | 0.00 | 53 | 1007.8 |
| 20260505164308 | 23 | 116 | 8.0 | 11.3 | 0.00 | 0.00 | 0.00 | 53 | 1007.7 |
| 20260505163806 | 23 | 137 | 9.7 | 11.3 | 0.00 | 0.00 | 0.00 | 55 | 1007.7 |
| 20260505163305 | 23 | 117 | 4.8 | 4.8 | 0.00 | 0.00 | 0.00 | 51 | 1007.6 |
| 20260505162803 | 23 | 161 | 11.3 | 14.5 | 0.00 | 0.00 | 0.00 | 53 | 1007.8 |
| 20260505162258 | 22 | 136 | 11.3 | 12.9 | 0.00 | 0.00 | 0.00 | 52 | 1007.9 |
| 20260505161756 | 23 | 141 | 17.7 | 24.1 | 0.00 | 0.00 | 0.00 | 52 | 1008.0 |
| 20260505161253 | 23 | 182 | 8.0 | 11.3 | 0.00 | 0.00 | 0.00 | 52 | 1008.1 |
| 20260505160750 | 22 | 116 | 8.0 | 9.7 | 0.00 | 0.00 | 0.00 | 56 | 1008.0 |
| 20260505160248 | 23 | 121 | 8.0 | 12.9 | 0.00 | 0.00 | 0.00 | 53 | 1008.0 |
| 20260505153227 | 22 | 151 | 11.3 | 12.9 | 0.00 | 0.00 | 0.00 | 56 | 1008.2 |
| 20260505152724 | 22 | 130 | 8.0 | 12.9 | 0.00 | 0.00 | 0.00 | 56 | 1008.4 |
| 20260505152220 | 22 | 119 | 1.6 | 3.2 | 0.00 | 0.00 | 0.00 | 56 | 1008.2 |
| 20260505151715 | 22 | 173 | 3.2 | 4.8 | 0.00 | 0.00 | 0.00 | 55 | 1008.1 |
| 20260505151213 | 22 | 153 | 1.6 | 1.6 | 0.00 | 0.00 | 0.00 | 55 | 1008.4 |
| 20260505150709 | 22 | 189 | 9.7 | 11.3 | 0.00 | 0.00 | 0.00 | 54 | 1008.0 |
| 20260505150206 | 22 | 159 | 4.8 | 4.8 | 0.00 | 0.00 | 0.00 | 57 | 1008.2 |
| 20260505140639 | 21 | 111 | 12.9 | 17.7 | 0.00 | 0.00 | 0.00 | 54 | 1008.0 |
| 20260505140136 | 21 | 116 | 11.3 | 14.5 | 0.00 | 0.00 | 0.00 | 55 | 1007.9 |
| 20260505124549 | 18 | 138 | 6.4 | 8.0 | 0.00 | 0.00 | 0.00 | 63 | 1008.1 |
| 20260505124046 | 18 | 124 | 6.4 | 8.0 | 0.00 | 0.00 | 0.00 | 63 | 1008.1 |
| 20260505123542 | 18 | 114 | 4.8 | 8.0 | 0.00 | 0.00 | 0.00 | 63 | 1008.1 |
| 20260505123038 | 18 | 138 | 3.2 | 3.2 | 0.00 | 0.00 | 0.00 | 66 | 1008.1 |
| 20260505122536 | 18 | 122 | 8.0 | 9.7 | 0.00 | 0.00 | 0.00 | 65 | 1008.0 |
| 20260505122032 | 17 | 120 | 4.8 | 4.8 | 0.00 | 0.00 | 0.00 | 66 | 1007.9 |
| 20260505121529 | 18 | 116 | 4.8 | 8.0 | 0.00 | 0.00 | 0.00 | 66 | 1007.9 |
| 20260505121026 | 17 | 132 | 3.2 | 3.2 | 0.00 | 0.00 | 0.00 | 66 | 1008.1 |
| 20260505120522 | 17 | 127 | 4.8 | 4.8 | 0.00 | 0.00 | 0.00 | 66 | 1007.7 |
| 20260505120018 | 17 | 133 | 9.7 | 12.9 | 0.00 | 0.00 | 0.00 | 65 | 1007.8 |
| 20260505115513 | 17 | 136 | 4.8 | 4.8 | 0.00 | 0.00 | 0.00 | 69 | 1007.5 |
| 20260505115011 | 17 | 139 | 6.4 | 11.3 | 0.00 | 0.00 | 0.00 | 68 | 1007.6 |
| 20260505114507 | 16 | 119 | 9.7 | 12.9 | 0.00 | 0.00 | 0.00 | 69 | 1007.4 |
| 20260505114004 | 16 | 133 | 4.8 | 4.8 | 0.00 | 0.00 | 0.00 | 71 | 1007.3 |
| 20260505113500 | 16 | 150 | 6.4 | 9.7 | 0.00 | 0.00 | 0.00 | 70 | 1007.4 |
| 20260505112956 | 16 | 169 | 9.7 | 12.9 | 0.00 | 0.00 | 0.00 | 71 | 1007.3 |
| 20260505112453 | 15 | 143 | 4.8 | 8.0 | 0.00 | 0.00 | 0.00 | 75 | 1007.3 |